DW9210 Weather Reports


time (UTC)temp
C
wind
direction
speed
KPH
gust
KPH
rain 1hr
cm
rain 24hr
cm
rain mn
cm
humidity
%
barometer
mb
20260831000003 27 0 0.0 0.0 0.00 0.00 0.00 71 1016.0
20260830235503 28 194 0.0 1.6 0.00 0.00 0.00 69 1016.0
20260830235003 28 195 0.0 1.6 0.00 0.00 0.00 69 1015.9
20260830234503 28 188 0.0 1.6 0.00 0.00 0.00 67 1016.0
20260830234003 29 186 0.0 1.6 0.00 0.00 0.00 67 1015.9
20260830233503 30 194 0.0 3.2 0.00 0.00 0.00 64 1015.7
20260830233003 30 201 0.0 3.2 0.00 0.00 0.00 61 1015.8
20260830232503 31 203 0.0 3.2 0.00 0.00 0.00 57 1015.6
20260830232003 31 203 0.0 3.2 0.00 0.00 0.00 56 1015.6
20260830231503 32 209 0.0 4.8 0.00 0.00 0.00 56 1015.6
20260830231003 32 208 1.6 4.8 0.00 0.00 0.00 54 1015.6
20260830230503 32 210 1.6 3.2 0.00 0.00 0.00 53 1015.8
20260830230003 32 212 1.6 4.8 0.00 0.00 0.00 51 1015.8
20260830225503 32 225 1.6 4.8 0.00 0.00 0.00 52 1015.8
20260830225003 32 232 1.6 4.8 0.00 0.00 0.00 51 1015.7
20260830224503 32 240 1.6 3.2 0.00 0.00 0.00 50 1015.8
20260830224003 32 244 1.6 6.4 0.00 0.00 0.00 52 1015.8
20260830223503 32 243 1.6 6.4 0.00 0.00 0.00 53 1015.8
20260830223003 32 238 1.6 3.2 0.00 0.00 0.00 51 1015.9
20260830222524 32 238 1.6 3.2 0.00 0.00 0.00 52 1016.0
20260830222024 32 246 0.0 1.6 0.00 0.00 0.00 54 1016.0
20260830221503 32 246 0.0 1.6 0.00 0.00 0.00 59 1016.1
20260830221003 31 245 1.6 3.2 0.00 0.00 0.00 57 1016.2
20260830220503 31 255 1.6 4.8 0.00 0.00 0.00 56 1016.1
20260830220024 31 258 1.6 4.8 0.00 0.00 0.00 52 1016.1
20260830215524 32 262 1.6 11.3 0.00 0.00 0.00 52 1016.0
20260830215003 32 278 3.2 11.3 0.00 0.00 0.00 46 1016.0
20260830214503 32 289 3.2 6.4 0.00 0.00 0.00 54 1016.1
20260830214003 32 277 3.2 9.7 0.00 0.00 0.00 54 1016.1
20260830213503 33 252 4.8 9.7 0.00 0.00 0.00 48 1016.2
20260830213003 33 234 4.8 8.0 0.00 0.00 0.00 44 1016.3
20260830212524 33 250 4.8 11.3 0.00 0.00 0.00 45 1016.2
20260830212003 33 269 3.2 11.3 0.00 0.00 0.00 49 1016.3
20260830211503 33 273 3.2 8.0 0.00 0.00 0.00 50 1016.3
20260830211003 33 255 1.6 8.0 0.00 0.00 0.00 48 1016.3
20260830210503 33 235 3.2 9.7 0.00 0.00 0.00 46 1016.4
20260830210003 33 244 3.2 9.7 0.00 0.00 0.00 47 1016.5
20260830205503 33 255 3.2 9.7 0.00 0.00 0.00 51 1016.5
20260830205003 33 242 3.2 9.7 0.00 0.00 0.00 52 1016.5
20260830204503 33 247 3.2 9.7 0.00 0.00 0.00 51 1016.5
20260830204024 33 329 1.6 4.8 0.00 0.00 0.00 51 1016.5
20260830203503 33 291 1.6 8.0 0.00 0.00 0.00 49 1016.5
20260830203024 33 288 3.2 8.0 0.00 0.00 0.00 49 1016.5
20260830202503 33 277 4.8 9.7 0.00 0.00 0.00 53 1016.6
20260830202003 33 267 3.2 9.7 0.00 0.00 0.00 52 1016.7
20260830201524 32 279 3.2 6.4 0.00 0.00 0.00 53 1016.8
20260830201003 32 270 4.8 11.3 0.00 0.00 0.00 54 1016.8
20260830200503 32 251 4.8 11.3 0.00 0.00 0.00 49 1016.9
20260830200003 32 254 3.2 8.0 0.00 0.00 0.00 54 1017.0
20260830195503 32 291 3.2 8.0 0.00 0.00 0.00 59 1017.1
20260830195024 32 286 3.2 9.7 0.00 0.00 0.00 58 1017.1
20260830194503 32 271 4.8 11.3 0.00 0.00 0.00 56 1017.1
20260830194003 32 285 4.8 11.3 0.00 0.00 0.00 54 1017.2
20260830193503 32 288 4.8 12.9 0.00 0.00 0.00 59 1017.3
20260830193003 32 275 4.8 12.9 0.00 0.00 0.00 58 1017.4
20260830192503 32 289 3.2 8.0 0.00 0.00 0.00 57 1017.4
20260830192003 32 300 3.2 8.0 0.00 0.00 0.00 57 1017.6
20260830191503 31 278 3.2 9.7 0.00 0.00 0.00 59 1017.7
20260830191003 31 257 4.8 11.3 0.00 0.00 0.00 61 1017.8
20260830190503 30 247 3.2 12.9 0.00 0.00 0.00 58 1017.9
20260830190003 31 253 3.2 12.9 0.00 0.00 0.00 57 1017.9
20260830185503 31 262 6.4 14.5 0.00 0.00 0.00 57 1017.9
20260830185003 31 265 6.4 14.5 0.00 0.00 0.00 54 1018.1
20260830184524 31 262 4.8 12.9 0.00 0.00 0.00 60 1018.0
20260830184003 31 266 3.2 11.3 0.00 0.00 0.00 58 1018.1
20260830183503 31 271 4.8 12.9 0.00 0.00 0.00 60 1018.2
20260830183003 31 275 6.4 12.9 0.00 0.00 0.00 57 1018.2
20260830182503 31 279 4.8 11.3 0.00 0.00 0.00 60 1018.3
20260830182024 32 274 3.2 8.0 0.00 0.00 0.00 61 1018.3
20260830181503 31 232 3.2 9.7 0.00 0.00 0.00 57 1018.4
20260830181003 31 217 4.8 9.7 0.00 0.00 0.00 59 1018.4
20260830180503 31 239 4.8 17.7 0.00 0.00 0.00 58 1018.4
20260830180024 31 243 6.4 17.7 0.00 0.00 0.00 57 1018.5
20260830175503 31 231 4.8 14.5 0.00 0.00 0.00 62 1018.6
20260830175003 31 235 4.8 12.9 0.00 0.00 0.00 58 1018.6
20260830174503 31 238 6.4 14.5 0.00 0.00 0.00 59 1018.7
20260830174003 31 240 4.8 14.5 0.00 0.00 0.00 63 1018.7
20260830173524 30 247 4.8 12.9 0.00 0.00 0.00 62 1018.8
20260830173003 30 246 4.8 12.9 0.00 0.00 0.00 58 1018.7
20260830172503 31 243 4.8 12.9 0.00 0.00 0.00 60 1018.8
20260830172003 31 245 6.4 12.9 0.00 0.00 0.00 60 1018.9
20260830171503 31 260 6.4 17.7 0.00 0.00 0.00 60 1018.8
20260830171003 31 257 8.0 17.7 0.00 0.00 0.00 61 1018.8
20260830170503 31 242 8.0 20.9 0.00 0.00 0.00 62 1018.9
20260830170003 31 245 6.4 20.9 0.00 0.00 0.00 63 1019.0
20260830165503 31 245 4.8 14.5 0.00 0.00 0.00 63 1019.0
20260830165024 31 230 4.8 16.1 0.00 0.00 0.00 64 1019.1
20260830164503 31 239 6.4 20.9 0.00 0.00 0.00 67 1019.1
20260830164003 31 238 6.4 20.9 0.00 0.00 0.00 67 1019.0
20260830163503 31 250 4.8 12.9 0.00 0.00 0.00 66 1019.1
20260830163003 31 241 4.8 11.3 0.00 0.00 0.00 67 1019.1
20260830162503 31 211 3.2 11.3 0.00 0.00 0.00 68 1019.1
20260830162003 31 223 4.8 11.3 0.00 0.00 0.00 68 1019.2
20260830161503 30 234 4.8 11.3 0.00 0.00 0.00 69 1019.2
20260830161004 30 228 4.8 11.3 0.00 0.00 0.00 71 1019.2
20260830160503 30 225 3.2 11.3 0.00 0.00 0.00 69 1019.1
20260830160003 30 225 4.8 12.9 0.00 0.00 0.00 70 1019.2
20260830155524 30 205 4.8 12.9 0.00 0.00 0.00 71 1019.2
20260830155003 30 200 3.2 11.3 0.00 0.00 0.00 71 1019.1
20260830154503 30 225 3.2 11.3 0.00 0.00 0.00 73 1019.1
20260830154003 30 237 3.2 14.5 0.00 0.00 0.00 74 1019.1
20260830153524 30 221 3.2 14.5 0.00 0.00 0.00 72 1019.1
20260830153003 30 211 3.2 8.0 0.00 0.00 0.00 73 1019.0
20260830152503 29 219 3.2 9.7 0.00 0.00 0.00 71 1019.0
20260830152024 29 218 3.2 9.7 0.00 0.00 0.00 72 1018.9
20260830151503 29 214 3.2 8.0 0.00 0.00 0.00 72 1018.9
20260830151003 29 214 3.2 11.3 0.00 0.00 0.00 73 1019.0
20260830150503 29 208 3.2 11.3 0.00 0.00 0.00 73 1018.8
20260830150003 28 203 3.2 11.3 0.00 0.00 0.00 74 1018.7
20260830145503 28 205 3.2 11.3 0.00 0.00 0.00 75 1018.7
20260830145003 28 207 3.2 11.3 0.00 0.00 0.00 76 1018.7
20260830144503 28 212 3.2 11.3 0.00 0.00 0.00 77 1018.8
20260830144003 28 223 3.2 11.3 0.00 0.00 0.00 76 1018.8
20260830143503 27 222 3.2 9.7 0.00 0.00 0.00 79 1018.8
20260830143003 27 216 3.2 9.7 0.00 0.00 0.00 77 1018.8
20260830142503 27 212 3.2 12.9 0.00 0.00 0.00 77 1018.7
20260830142024 27 213 3.2 12.9 0.00 0.00 0.00 77 1018.6
20260830141503 27 215 4.8 14.5 0.00 0.00 0.00 78 1018.6
20260830141003 27 218 3.2 14.5 0.00 0.00 0.00 77 1018.6
20260830140503 27 204 3.2 11.3 0.00 0.00 0.00 80 1018.6
20260830140003 26 201 3.2 8.0 0.00 0.00 0.00 81 1018.5
20260830135503 26 217 3.2 14.5 0.00 0.00 0.00 82 1018.5
20260830135024 26 219 3.2 14.5 0.00 0.00 0.00 81 1018.5
20260830134503 26 224 3.2 11.3 0.00 0.00 0.00 82 1018.5
20260830134003 26 216 4.8 14.5 0.00 0.00 0.00 83 1018.5
20260830133503 26 213 1.6 14.5 0.00 0.00 0.00 82 1018.5
20260830133003 26 0 0.0 0.0 0.00 0.00 0.00 83 1018.5
20260830132524 25 0 0.0 0.0 0.00 0.00 0.00 83 1018.4
20260830132024 25 0 0.0 0.0 0.00 0.00 0.00 84 1018.4
20260830131503 25 0 0.0 0.0 0.00 0.00 0.00 86 1018.3
20260830131003 25 0 0.0 0.0 0.00 0.00 0.00 87 1018.3
20260830130503 24 0 0.0 0.0 0.00 0.00 0.00 87 1018.4
20260830130003 23 0 0.0 0.0 0.00 0.00 0.00 87 1018.3
20260830125524 23 0 0.0 0.0 0.00 0.00 0.00 89 1018.4
20260830125003 23 0 0.0 0.0 0.00 0.00 0.00 90 1018.4
20260830124503 22 0 0.0 0.0 0.00 0.00 0.00 92 1018.5
20260830124003 22 0 0.0 0.0 0.00 0.00 0.00 93 1018.5
20260830123503 22 0 0.0 0.0 0.00 0.00 0.00 94 1018.5
20260830123003 21 0 0.0 0.0 0.00 0.00 0.00 94 1018.4
20260830122503 21 0 0.0 0.0 0.00 0.00 0.00 96 1018.4
20260830122003 21 0 0.0 0.0 0.00 0.00 0.00 97 1018.4
20260830121503 20 0 0.0 0.0 0.00 0.00 0.00 97 1018.3
20260830121003 20 0 0.0 0.0 0.00 0.00 0.00 98 1018.1
20260830120503 19 0 0.0 0.0 0.00 0.00 0.00 98 1018.1
20260830120024 18 0 0.0 0.0 0.00 0.00 0.00 98 1018.0
20260830115503 18 0 0.0 0.0 0.00 0.00 0.00 97 1018.1
20260830115003 18 0 0.0 0.0 0.00 0.00 0.00 97 1018.0
20260830114503 18 0 0.0 0.0 0.00 0.00 0.00 97 1018.1
20260830114003 17 0 0.0 0.0 0.00 0.00 0.00 97 1018.1
20260830113524 17 0 0.0 0.0 0.00 0.00 0.00 97 1018.1
20260830113003 17 0 0.0 0.0 0.00 0.00 0.00 97 1018.1
20260830112503 17 0 0.0 0.0 0.00 0.00 0.00 97 1018.0
20260830112003 17 0 0.0 0.0 0.00 0.00 0.00 97 1017.9
20260830111503 17 0 0.0 0.0 0.00 0.00 0.00 97 1017.9
20260830111003 17 0 0.0 0.0 0.00 0.00 0.00 96 1017.8
20260830110503 17 0 0.0 0.0 0.00 0.00 0.00 97 1017.8
20260830110024 17 0 0.0 0.0 0.00 0.00 0.00 97 1017.8
20260830105503 17 0 0.0 0.0 0.00 0.00 0.00 97 1017.8
20260830105003 17 0 0.0 0.0 0.00 0.00 0.00 97 1017.7
20260830104503 17 0 0.0 0.0 0.00 0.00 0.00 96 1017.6
20260830104024 17 0 0.0 0.0 0.00 0.00 0.00 96 1017.6
20260830103503 17 0 0.0 0.0 0.00 0.00 0.00 96 1017.6
20260830103024 17 0 0.0 0.0 0.00 0.00 0.00 96 1017.5
20260830102503 17 0 0.0 0.0 0.00 0.00 0.00 97 1017.5
20260830102003 17 0 0.0 0.0 0.00 0.00 0.00 96 1017.5
20260830101503 18 0 0.0 0.0 0.00 0.00 0.00 96 1017.5
20260830101003 18 0 0.0 0.0 0.00 0.00 0.00 97 1017.5
20260830100524 18 0 0.0 0.0 0.00 0.00 0.00 96 1017.5
20260830100003 18 0 0.0 0.0 0.00 0.00 0.00 96 1017.5
20260830095524 18 0 0.0 0.0 0.00 0.00 0.00 96 1017.5
20260830095003 18 0 0.0 0.0 0.00 0.00 0.00 96 1017.4
20260830094524 18 0 0.0 0.0 0.00 0.00 0.00 96 1017.5
20260830094003 18 0 0.0 0.0 0.00 0.00 0.00 96 1017.5
20260830093503 18 0 0.0 0.0 0.00 0.00 0.00 97 1017.5
20260830093003 18 0 0.0 0.0 0.00 0.00 0.00 97 1017.5
20260830092503 18 0 0.0 0.0 0.00 0.00 0.00 97 1017.4
20260830092003 18 0 0.0 0.0 0.00 0.00 0.00 97 1017.4
20260830091503 18 0 0.0 0.0 0.00 0.00 0.00 96 1017.5
20260830091003 18 0 0.0 0.0 0.00 0.00 0.00 97 1017.5
20260830090503 18 0 0.0 0.0 0.00 0.00 0.00 97 1017.5
20260830090004 18 0 0.0 0.0 0.00 0.00 0.00 97 1017.6
20260830085503 18 0 0.0 0.0 0.00 0.00 0.00 97 1017.6
20260830085003 18 0 0.0 0.0 0.00 0.00 0.00 97 1017.6
20260830084503 18 0 0.0 0.0 0.00 0.00 0.00 97 1017.6
20260830084003 18 0 0.0 0.0 0.00 0.00 0.00 96 1017.7
20260830083524 18 0 0.0 0.0 0.00 0.00 0.00 96 1017.7
20260830083003 18 0 0.0 0.0 0.00 0.00 0.00 97 1017.8
20260830082524 18 0 0.0 0.0 0.00 0.00 0.00 97 1017.7
20260830082003 18 0 0.0 0.0 0.00 0.00 0.00 97 1017.7
20260830081503 18 0 0.0 0.0 0.00 0.00 0.00 97 1017.7
20260830081003 18 0 0.0 0.0 0.00 0.00 0.00 97 1017.7
20260830080503 18 0 0.0 0.0 0.00 0.00 0.00 97 1017.7
20260830080003 17 0 0.0 0.0 0.00 0.00 0.00 96 1017.7
20260830075524 17 0 0.0 0.0 0.00 0.00 0.00 96 1017.7
20260830075003 17 0 0.0 0.0 0.00 0.00 0.00 96 1017.7
20260830074503 17 0 0.0 0.0 0.00 0.00 0.00 96 1017.8
20260830074024 17 0 0.0 0.0 0.00 0.00 0.00 96 1017.8
20260830073503 18 0 0.0 0.0 0.00 0.00 0.00 96 1017.9
20260830073003 18 0 0.0 0.0 0.00 0.00 0.00 96 1017.9
20260830072503 18 0 0.0 0.0 0.00 0.00 0.00 96 1017.9
20260830072024 18 0 0.0 0.0 0.00 0.00 0.00 96 1017.8
20260830071503 18 0 0.0 0.0 0.00 0.00 0.00 96 1017.8
20260830071003 18 0 0.0 0.0 0.00 0.00 0.00 96 1017.8
20260830070503 18 0 0.0 0.0 0.00 0.00 0.00 96 1017.8
20260830070003 18 0 0.0 0.0 0.00 0.00 0.00 96 1017.8
20260830065503 18 0 0.0 0.0 0.00 0.00 0.00 96 1017.8
20260830065003 18 0 0.0 0.0 0.00 0.00 0.00 96 1017.9
20260830064503 18 0 0.0 0.0 0.00 0.00 0.00 96 1017.9
20260830064003 17 0 0.0 0.0 0.00 0.00 0.00 96 1018.0
20260830063503 17 0 0.0 0.0 0.00 0.00 0.00 96 1018.0
20260830063003 18 0 0.0 0.0 0.00 0.00 0.00 96 1017.9
20260830062503 18 0 0.0 0.0 0.00 0.00 0.00 96 1018.0
20260830062003 17 0 0.0 0.0 0.00 0.00 0.00 96 1018.0
20260830061524 17 0 0.0 0.0 0.00 0.00 0.00 95 1018.1
20260830061003 18 0 0.0 0.0 0.00 0.00 0.00 95 1018.1
20260830060524 18 0 0.0 0.0 0.00 0.00 0.00 95 1018.1
20260830060003 18 0 0.0 0.0 0.00 0.00 0.00 95 1018.1
20260830055503 18 0 0.0 0.0 0.00 0.00 0.00 95 1018.2
20260830055003 18 0 0.0 0.0 0.00 0.00 0.00 96 1018.2
20260830054503 18 0 0.0 0.0 0.00 0.00 0.00 95 1018.2
20260830054003 18 0 0.0 0.0 0.00 0.00 0.00 95 1018.2
20260830053503 18 0 0.0 0.0 0.00 0.00 0.00 95 1018.2
20260830053003 18 0 0.0 0.0 0.00 0.00 0.00 95 1018.2
20260830052524 18 0 0.0 0.0 0.00 0.00 0.00 95 1018.1
20260830052003 18 0 0.0 0.0 0.00 0.00 0.00 95 1018.1
20260830051503 18 0 0.0 0.0 0.00 0.00 0.00 95 1018.1
20260830051003 18 0 0.0 0.0 0.00 0.00 0.00 95 1018.1
20260830050503 18 0 0.0 0.0 0.00 0.00 0.00 95 1018.1
20260830050024 18 0 0.0 0.0 0.00 0.00 0.00 95 1018.1
20260830045503 18 0 0.0 0.0 0.00 0.00 0.00 95 1018.1
20260830045003 18 0 0.0 0.0 0.00 0.00 0.00 95 1018.1
20260830044503 18 0 0.0 0.0 0.00 0.00 0.00 95 1018.1
20260830044003 18 0 0.0 0.0 0.00 0.00 0.00 95 1018.0
20260830043503 18 0 0.0 0.0 0.00 0.00 0.00 95 1018.0
20260830043003 18 0 0.0 0.0 0.00 0.00 0.00 95 1018.0
20260830042503 18 0 0.0 0.0 0.00 0.00 0.00 95 1018.1
20260830042003 18 0 0.0 0.0 0.00 0.00 0.00 95 1018.1
20260830041524 18 0 0.0 0.0 0.00 0.00 0.00 95 1018.1
20260830041003 18 0 0.0 0.0 0.00 0.00 0.00 94 1018.1
20260830040503 19 0 0.0 0.0 0.00 0.00 0.00 94 1017.9
20260830040003 19 0 0.0 0.0 0.00 0.00 0.00 95 1018.1
20260830035524 19 0 0.0 0.0 0.00 0.00 0.00 94 1018.0
20260830035003 19 0 0.0 0.0 0.00 0.00 0.00 94 1018.0
20260830034503 19 0 0.0 0.0 0.00 0.00 0.00 94 1018.0
20260830034003 19 0 0.0 0.0 0.00 0.00 0.00 94 1018.0
20260830033503 20 0 0.0 0.0 0.00 0.00 0.00 94 1017.9
20260830033003 20 0 0.0 0.0 0.00 0.00 0.00 94 1017.9
20260830032503 20 0 0.0 0.0 0.00 0.00 0.00 94 1017.8
20260830032003 20 0 0.0 0.0 0.00 0.00 0.00 94 1017.9
20260830031503 20 0 0.0 0.0 0.00 0.00 0.00 94 1017.9
20260830031003 20 0 0.0 0.0 0.00 0.00 0.00 94 1017.9
20260830030503 20 0 0.0 0.0 0.00 0.00 0.00 94 1017.9
20260830030003 20 0 0.0 0.0 0.00 0.00 0.00 94 1017.9
20260830025503 20 0 0.0 0.0 0.00 0.00 0.00 94 1017.8
20260830025003 20 0 0.0 0.0 0.00 0.00 0.00 94 1017.7
20260830024503 20 0 0.0 0.0 0.00 0.00 0.00 93 1017.7
20260830024003 20 0 0.0 0.0 0.00 0.00 0.00 93 1017.7
20260830023503 20 0 0.0 0.0 0.00 0.00 0.00 93 1017.7
20260830023003 20 0 0.0 0.0 0.00 0.00 0.00 93 1017.7
20260830022503 20 0 0.0 0.0 0.00 0.00 0.00 93 1017.7
20260830022003 20 0 0.0 0.0 0.00 0.00 0.00 93 1017.6
20260830021503 20 0 0.0 0.0 0.00 0.00 0.00 93 1017.7
20260830021003 20 0 0.0 0.0 0.00 0.00 0.00 93 1017.7
20260830020524 20 0 0.0 0.0 0.00 0.00 0.00 93 1017.6
20260830020003 21 0 0.0 0.0 0.00 0.00 0.00 92 1017.6
20260830015503 21 0 0.0 0.0 0.00 0.00 0.00 92 1017.6
20260830015024 21 0 0.0 0.0 0.00 0.00 0.00 92 1017.6
20260830014503 21 0 0.0 0.0 0.00 0.00 0.00 92 1017.6
20260830014003 21 0 0.0 0.0 0.00 0.00 0.00 91 1017.6
20260830013503 21 0 0.0 0.0 0.00 0.00 0.00 91 1017.6
20260830013003 21 0 0.0 0.0 0.00 0.00 0.00 91 1017.5
20260830012503 21 0 0.0 0.0 0.00 0.00 0.00 90 1017.5
20260830012003 22 0 0.0 0.0 0.00 0.00 0.00 90 1017.5
20260830011503 22 0 0.0 0.0 0.00 0.00 0.00 90 1017.3
20260830011003 22 0 0.0 0.0 0.00 0.00 0.00 89 1017.2
20260830010503 22 0 0.0 0.0 0.00 0.00 0.00 89 1017.1
20260830010003 22 0 0.0 0.0 0.00 0.00 0.00 89 1017.0
20260830005503 22 0 0.0 0.0 0.00 0.00 0.00 88 1017.0
20260830005003 23 0 0.0 0.0 0.00 0.00 0.00 87 1017.0
20260830004503 23 0 0.0 0.0 0.00 0.00 0.00 85 1017.1
20260830004024 23 0 0.0 0.0 0.00 0.00 0.00 84 1017.2
20260830003503 23 0 0.0 0.0 0.00 0.00 0.00 82 1017.2
20260830003003 24 63 0.0 1.6 0.00 0.00 0.00 83 1017.2
20260830002503 24 63 0.0 1.6 0.00 0.00 0.00 83 1017.2
20260830002003 25 62 0.0 1.6 0.00 0.00 0.00 82 1017.2
20260830001503 25 0 0.0 0.0 0.00 0.00 0.00 80 1017.2
20260830001024 25 0 0.0 0.0 0.00 0.00 0.00 79 1017.2
20260830000524 25 0 0.0 0.0 0.00 0.00 0.00 78 1017.3